Observations for Trim Market St
| Time | AQI | Temp °C | Hum % | Pres Pa | CO μg/m³ | H₂S μg/m³ | NO μg/m³ | NO₂ μg/m³ | O₃ μg/m³ | SO₂ μg/m³ | PM1 μg/m³ | PM2.5 μg/m³ | PM10 μg/m³ |
|---|---|---|---|---|---|---|---|---|---|---|---|---|---|
| Thursday 9 July 2026 | |||||||||||||
| 01:18 | 1 | 18.8 | 71 | 51,502 | 0 | 0 | 0 | 5.99 | 14.06 | 0 | 0.71 | 2.51 | 4.43 |
| 01:17 | 1 | 18.8 | 71 | 51,571 | 0 | 0 | 0 | 6.11 | 12.98 | 0 | 0 | 2.52 | 4.43 |
| 01:16 | 1 | 18.8 | 71 | 51,633 | 0 | 0 | 0 | 7.49 | 10.14 | 0 | 1.43 | 2.51 | 4.43 |
| 01:15 | 1 | 18.8 | 71 | 51,691 | 0 | 0 | 0 | 3.91 | 14.41 | 0 | 0 | 1.55 | 3.19 |
| 01:14 | 1 | 18.8 | 71 | 51,719 | 0 | 0 | 0 | 6.59 | 12.19 | 0 | 0 | 2.51 | 5.05 |
| 01:13 | 1 | 18.8 | 71 | 51,735 | 0 | 0 | 0 | 6.01 | 11.29 | 0 | 0 | 2.03 | 5.05 |
| 01:12 | 1 | 18.8 | 71 | 51,719 | 0 | 0 | 0 | 5.21 | 12.57 | 0 | 0 | 2.03 | 3.81 |
| 01:11 | 1 | 18.8 | 71 | 51,639 | 0 | 0 | 0 | 2.42 | 17.28 | 0 | 0.71 | 2.52 | 4.43 |
| 01:03 | 1 | 18.9 | 71 | 51,704 | 0 | 0 | 0 | 4.11 | 11 | 0 | 0 | 1.56 | 3.18 |
| 01:02 | 1 | 18.9 | 71 | 51,743 | 0 | 0 | 0 | 5.21 | 12.43 | 0 | 0.71 | 2.05 | 3.8 |
| 00:59 | 1 | 19 | 71 | 52,004 | 0 | 0 | 0 | 5.2 | 11.18 | 0 | 0 | 1.57 | 3.79 |
| 00:58 | 1 | 19 | 71 | 52,081 | 0 | 0 | 0 | 8.5 | 17.92 | 0 | 0 | 2.05 | 4.42 |
| 00:53 | 1 | 19.1 | 70 | 52,325 | 0 | 0 | 0 | 3.69 | 10.99 | 0 | 0 | 1.57 | 3.16 |
| 00:52 | 1 | 19.1 | 70 | 52,391 | 0 | 0 | 0 | 5.7 | 15.51 | 0 | 0 | 2.06 | 3.78 |
| 00:51 | 1 | 19.1 | 70 | 52,474 | 0 | 0 | 0 | 6.12 | 9.85 | 0 | 0 | 2.07 | 6.28 |
| 00:50 | 1 | 19.1 | 70 | 52,578 | 0 | 0 | 0 | 8.42 | 15.24 | 0 | 0 | 2.55 | 4.4 |
| 00:48 | 1 | 19.2 | 70 | 52,784 | 0 | 0 | 0 | 3.7 | 13.95 | 0 | 0 | 1.59 | 3.15 |
| 00:45 | 1 | 19.2 | 70 | 53,077 | 0 | 0 | 0 | 5.22 | 14.01 | 0 | 0 | 1.11 | 3.14 |
| 00:44 | 1 | 19.2 | 70 | 53,188 | 0 | 0 | 0 | 7.22 | 10.06 | 0 | 0 | 1.6 | 3.14 |
| 00:43 | 1 | 19.2 | 70 | 53,316 | 0 | 0 | 0 | 6.33 | 15.45 | 0 | 0.71 | 2.09 | 3.77 |